World > North America > United States > Texas

Goodville, Texas Regional Weather

Lat: 31.19N, Lon: 97.07W
Wx Zone: TXZ160Web Search
Goodville Weather Warning NWS WEATHER ALERT FOR THE GOODVILLE, TX AREA - Issued: 243 AM CDT Thu Apr 15 2021 Goodville Weather Warning  

Helpful Tip: You can add this page to Bookmarks by pressing the Ctrl key & d key at the same time. Mac users press command & d.

Feedback


°F Click to change Goodville hourly weather to Imperial units.Click to change Goodville hourly weather to Metric units. °C
Goodville Weather Map
UTC Time: 4/15/2021, 14:38
Your Time:

Goodville, TX Regional Weather

Expires:202104151500;;593126
ASUS44 KFWD 151415
RWRTX 
NORTH TEXAS HOURLY WEATHER ROUNDUP
NATIONAL WEATHER SERVICE FORT WORTH TX
900 AM CDT THU APR 15 2021

NOTE: "FAIR" INDICATES FEW OR NO CLOUDS BELOW 12,000 FEET WITH NO
SIGNIFICANT WEATHER AND/OR OBSTRUCTIONS TO VISIBILITY.


TXZ143>147-156>162-174-175-151500-
CENTRAL TEXAS
  
CITY           SKY/WX    TMP DP  RH WIND       PRES   REMARKS
WACO           CLOUDY    61  55  81 E9G20     30.04R                  
WACO-TSTC      CLOUDY    59  55  88 NE10      30.04S                  
WACO-MCGREGOR  CLOUDY    61  56  83 NE9       30.04R                  
HILLSBORO      CLOUDY    57  57 100 NE12      30.06R                  
CORSICANA      CLOUDY    59  54  83 NE9       30.06S                  
MEXIA          CLOUDY    59  56  88 NE9       30.04S                  
HEARNE         CLOUDY    62  57  86 CALM      30.03S                  
CAMERON        CLOUDY    61  58  88 NE7       30.02S                  
TEMPLE         CLOUDY    59  59 100 NE10      30.03F                  
KILLEEN        CLOUDY    59  58  95 E8        30.01R                  
KILLEEN-SKYLRK CLOUDY   N/A N/A N/A NE9       30.04R                  
FORT HOOD      CLOUDY    59  58  95 NE6       30.03R                  
GATESVILLE     CLOUDY    59  57  94 NE8       30.06R                  
HAMILTON       CLOUDY    58  58 100 E8        30.05S                  
LAMPASAS       CLOUDY    58  57  96 NE8       30.02S FOG              
$$


SKY/WX - Weather  TMP - Temperature  DP - Dew Point  RH - Relative Humidity
WIND - Wind Direction/Speed PRES - Barometric Pressure VSB - Visibility
WCI - Wind Chill Index E13G22 Wind - East Wind 13 mph/Gusts of 22 mph